Date String (YYYY-MM-DD hh:mm:ss) UTC,Instrument flags,absolute air pressure of the measurement (hPa),sample flow rate (lpm),inlet stack bypass flow (lpm),air temperature of the measurement (°C),ambient temperature measured by the external sensor (°C),aerosol sample conditioner tube jacket temperature (°C),OPC LED temperature (°C),internal box temperature (°C),relative humidity of the measurement (%),span deviation,mass concentration of particles derived from Lorenz-Mie calculation of OPC scattering (μg/m³),mass concentration of particles derived from Lorenz-Mie calculation of OPC scattering (μg/m³),mass concentration of particles derived from Lorenz-Mie calculation of OPC scattering (μg/m³)
DateTimeUTC,F1_M11,P_M11,Q1_M11,Q2_M11,T1_M11,T2_M11,T3_M11,T4_M11,T5_M11,U1_M11,ZSPAN_M11,X2_M11,X0_M11,X1_M11
2023-07-05 04:00:00,SystemResetWarning,0838.3,4.99,000.00,029.5,028.0,000.0,038.1,031.1,31.4,0000.0,0003.96,0007.62,0003.35
2023-07-05 04:01:00,SystemResetWarning,0838.3,4.99,000.00,029.6,028.1,000.0,038.1,031.1,31.4,0000.0,0003.95,0007.61,0003.34
2023-07-05 04:02:00,SystemResetWarning,0838.3,5.00,000.00,029.6,028.2,000.0,038.1,031.2,31.4,0000.0,0003.94,0007.59,0003.34
2023-07-05 04:03:00,SystemResetWarning,0838.3,5.00,000.00,029.6,028.3,000.0,038.1,031.2,31.3,0000.0,0003.95,0007.57,0003.34
2023-07-05 04:04:00,SystemResetWarning,0838.3,5.00,000.00,029.6,028.3,000.0,038.2,031.2,31.4,0000.0,0003.96,0007.62,0003.33
2023-07-05 04:05:00,SystemResetWarning,0838.3,5.00,000.00,029.6,028.4,000.0,038.2,031.2,31.5,0000.0,0003.97,0007.63,0003.33
2023-07-05 04:06:00,SystemResetWarning,0838.2,5.00,000.00,029.7,028.4,000.0,038.2,031.3,31.5,0000.0,0003.96,0007.53,0003.33
2023-07-05 04:07:00,SystemResetWarning,0838.2,5.00,000.00,029.7,028.5,000.0,038.2,031.3,31.6,0000.0,0003.96,0007.46,0003.33
2023-07-05 04:08:00,SystemResetWarning,0838.2,5.01,000.00,029.7,028.5,000.0,038.2,031.3,31.7,0000.0,0003.93,0007.38,0003.32
2023-07-05 04:09:00,SystemResetWarning,0838.0,5.00,000.00,029.7,028.6,000.0,038.2,031.3,31.6,0000.0,0003.91,0007.33,0003.31
2023-07-05 04:10:00,SystemResetWarning,0837.9,5.00,000.00,029.8,028.6,000.0,038.2,031.4,31.6,0000.0,0003.85,0006.83,0003.30
2023-07-05 04:11:00,SystemResetWarning,0837.8,5.00,000.00,029.8,028.7,000.0,038.3,031.4,31.6,0000.0,0003.83,0006.52,0003.30
2023-07-05 04:12:00,SystemResetWarning,0837.8,5.00,000.00,029.8,028.7,000.0,038.3,031.4,31.5,0000.0,0003.84,0006.47,0003.32
2023-07-05 04:13:00,SystemResetWarning,0837.7,5.00,000.00,029.8,028.7,000.0,038.3,031.5,31.5,0000.0,0003.85,0006.48,0003.32
2023-07-05 04:14:00,SystemResetWarning,0837.7,4.99,000.00,029.9,028.0,000.0,038.3,031.4,31.4,0000.0,0003.85,0006.52,0003.32
2023-07-05 04:15:00,SystemResetWarning,0837.7,4.99,000.00,029.8,026.0,000.0,038.1,031.2,31.4,0000.0,0003.85,0006.52,0003.33
2023-07-05 04:16:00,SystemResetWarning,0837.8,5.01,000.00,029.7,025.2,000.0,038.0,030.9,31.6,0000.0,0003.86,0006.53,0003.34
2023-07-05 04:17:00,SystemResetWarning,0837.8,5.01,000.00,029.6,025.3,000.0,038.0,030.6,31.9,0000.0,0003.84,0006.48,0003.34
2023-07-05 04:18:00,SystemResetWarning,0837.9,5.00,000.00,029.5,025.6,000.0,038.1,030.6,32.1,0000.0,0003.80,0006.24,0003.34
2023-07-05 04:19:00,SystemResetWarning,0838.0,5.01,000.00,029.4,026.1,000.0,038.1,030.7,32.3,0000.0,0003.78,0006.23,0003.34
2023-07-05 04:20:00,SystemResetWarning,0838.2,5.00,000.00,029.4,026.5,000.0,038.1,030.8,32.4,0000.0,0003.75,0006.06,0003.34
2023-07-05 04:21:00,SystemResetWarning,0838.2,4.99,000.00,029.4,026.8,000.0,038.1,030.8,32.4,0000.0,0003.76,0006.15,0003.35
2023-07-05 04:22:00,SystemResetWarning,0838.2,4.99,000.00,029.4,027.1,000.0,038.1,030.9,32.3,0000.0,0003.73,0005.81,0003.34
2023-07-05 04:23:00,SystemResetWarning,0838.3,5.01,000.00,029.4,027.4,000.0,038.1,030.9,32.2,0000.0,0003.70,0005.67,0003.33
2023-07-05 04:24:00,SystemResetWarning,0838.3,5.01,000.00,029.4,027.6,000.0,038.0,030.9,32.1,0000.0,0003.71,0005.68,0003.34
2023-07-05 04:25:00,SystemResetWarning,0838.3,4.99,000.00,029.4,027.7,000.0,038.0,031.0,32.2,0000.0,0003.74,0005.87,0003.34
2023-07-05 04:26:00,SystemResetWarning,0838.3,4.99,000.00,029.4,027.9,000.0,038.0,031.0,32.3,0000.0,0003.74,0005.94,0003.33
2023-07-05 04:27:00,SystemResetWarning,0838.2,4.99,000.00,029.5,028.0,000.0,038.0,031.0,32.3,0000.0,0003.70,0005.78,0003.32
2023-07-05 04:28:00,SystemResetWarning,0838.1,5.00,000.00,029.5,028.0,000.0,038.0,031.0,32.3,0000.0,0003.70,0005.81,0003.31
2023-07-05 04:29:00,SystemResetWarning,0837.8,5.00,000.00,029.5,028.1,000.0,038.1,031.1,32.4,0000.0,0003.72,0005.88,0003.32
2023-07-05 04:30:00,SystemResetWarning,0837.5,5.00,000.00,029.5,028.2,000.0,038.1,031.1,32.6,0000.0,0003.73,0005.84,0003.32
2023-07-05 04:31:00,SystemResetWarning,0837.0,5.00,000.00,029.6,028.3,000.0,038.1,031.2,32.6,0000.0,0003.75,0006.02,0003.32
2023-07-05 04:32:00,SystemResetWarning,0836.6,5.00,000.00,029.6,028.3,000.0,038.1,031.2,32.5,0000.0,0003.72,0005.84,0003.31
2023-07-05 04:33:00,SystemResetWarning,0836.2,5.00,000.00,029.6,028.4,000.0,038.1,031.2,32.3,0000.0,0003.72,0005.97,0003.31
2023-07-05 04:34:00,SystemResetWarning,0836.0,5.00,000.00,029.6,028.4,000.0,038.1,031.2,32.2,0000.0,0003.75,0007.31,0003.32
2023-07-05 04:35:00,SystemResetWarning,0836.0,5.00,000.00,029.6,028.4,000.0,038.2,031.3,32.2,0000.0,0003.72,0007.43,0003.31
2023-07-05 04:36:00,SystemResetWarning,0836.2,5.00,000.00,029.7,028.5,000.0,038.2,031.3,32.1,0000.0,0003.69,0007.46,0003.30
2023-07-05 04:37:00,SystemResetWarning,0836.4,5.00,000.00,029.7,028.5,000.0,038.2,031.3,32.0,0000.0,0003.67,0007.38,0003.30
2023-07-05 04:38:00,SystemResetWarning,0836.6,5.00,000.00,029.7,028.5,000.0,038.2,031.3,31.9,0000.0,0003.67,0007.37,0003.30
2023-07-05 04:39:00,SystemResetWarning,0836.7,5.00,000.00,029.7,028.6,000.0,038.2,031.3,31.9,0000.0,0003.66,0007.32,0003.30
2023-07-05 04:40:00,SystemResetWarning,0836.8,5.00,000.00,029.8,028.6,000.0,038.2,031.4,31.9,0000.0,0003.66,0007.34,0003.30
2023-07-05 04:41:00,SystemResetWarning,0836.8,5.00,000.00,029.8,028.6,000.0,038.2,031.4,31.8,0000.0,0003.67,0007.37,0003.29
2023-07-05 04:42:00,SystemResetWarning,0837.0,5.01,000.00,029.8,028.7,000.0,038.3,031.4,31.8,0000.0,0003.66,0007.33,0003.29
2023-07-05 04:43:00,SystemResetWarning,0837.1,5.00,000.00,029.8,028.7,000.0,038.3,031.4,31.8,0000.0,0003.66,0007.34,0003.29
2023-07-05 04:44:00,SystemResetWarning,0837.2,5.00,000.00,029.8,028.7,000.0,038.3,031.5,31.8,0000.0,0003.68,0007.50,0003.29
2023-07-05 04:45:00,SystemResetWarning,0837.2,5.00,000.00,029.9,028.7,000.0,038.3,031.5,31.8,0000.0,0003.71,0006.52,0003.28
2023-07-05 04:46:00,SystemResetWarning,0837.5,5.00,000.00,029.9,028.8,000.0,038.3,031.5,31.8,0000.0,0003.71,0006.28,0003.28
2023-07-05 04:47:00,SystemResetWarning,0837.7,5.00,000.00,029.9,028.8,000.0,038.4,031.5,31.8,0000.0,0003.74,0006.13,0003.30
2023-07-05 04:48:00,SystemResetWarning,0837.8,5.00,000.00,029.9,028.8,000.0,038.4,031.5,31.8,0000.0,0003.77,0006.19,0003.31
2023-07-05 04:49:00,SystemResetWarning,0837.9,4.99,000.00,030.0,028.8,000.0,038.4,031.6,31.8,0000.0,0003.81,0006.37,0003.33
2023-07-05 04:50:00,SystemResetWarning,0838.0,4.99,000.00,030.0,028.9,000.0,038.4,031.6,31.9,0000.0,0003.83,0006.41,0003.35
2023-07-05 04:51:00,SystemResetWarning,0838.1,5.00,000.00,030.0,028.9,000.0,038.4,031.6,31.9,0000.0,0003.83,0006.41,0003.37
2023-07-05 04:52:00,SystemResetWarning,0838.2,5.00,000.00,030.0,027.8,000.0,038.4,031.5,31.8,0000.0,0003.85,0006.36,0003.41
2023-07-05 04:53:00,SystemResetWarning,0838.1,5.00,000.00,029.9,025.8,000.0,038.3,031.3,31.9,0000.0,0003.87,0006.35,0003.44
2023-07-05 04:54:00,SystemResetWarning,0837.9,5.00,000.00,029.8,025.2,000.0,038.2,031.0,32.1,0000.0,0003.90,0006.39,0003.46
2023-07-05 04:55:00,SystemResetWarning,0838.0,5.01,000.00,029.7,025.3,000.0,038.2,030.7,32.4,0000.0,0003.91,0006.08,0003.49
2023-07-05 04:56:00,SystemResetWarning,0838.0,5.01,000.00,029.6,025.7,000.0,038.2,030.7,32.7,0000.0,0003.92,0006.00,0003.51
2023-07-05 04:57:00,SystemResetWarning,0837.8,4.98,000.00,029.5,026.2,000.0,038.2,030.8,32.9,0000.0,0003.94,0006.03,0003.53
2023-07-05 04:58:00,SystemResetWarning,0837.8,5.00,000.00,029.5,026.6,000.0,038.2,030.9,32.9,0000.0,0003.93,0005.98,0003.54
2023-07-05 04:59:00,SystemResetWarning,0837.8,5.02,000.00,029.5,026.9,000.0,038.2,030.9,32.9,0000.0,0003.95,0006.07,0003.55
